[Iaude] MPEC J54: 2024 JZ [a=1.27,e=0.56,i=35.3,H=23.3]
    mpec at cfa.harvard.edu 
    mpec at cfa.harvard.edu
       
    Fri May  3 23:27:51 EDT 2024
    
    
  
M.P.E.C. 2024-J54                                   Issued 2024 May 4, 03:26 UT
     The Minor Planet Electronic Circulars contain information on unusual
         minor planets, routine data on comets and natural satellites,
         and occasional editorial announcements.  They are published
    on behalf of Division F of the International Astronomical Union by the
          Minor Planet Center, Smithsonian Astrophysical Observatory,
                          Cambridge, MA 02138, U.S.A.
			  
             Prepared using the Tamkin Foundation Computer Network
                              MPC at CFA.HARVARD.EDU
            URL https://www.minorplanetcenter.net/    ISSN 1523-6714
                                    2024 JZ                                     
Observations:
     K24J00Z* C2024 05 02.59397817 38 10.458+03 14 10.85         20.25wXEJ054F51
     K24J00Z  C2024 05 02.60322317 38 13.346+03 13 12.14         20.43wXEJ054F51
     K24J00Z  C2024 05 02.61248417 38 16.262+03 12 12.95         19.97wXEJ054F51
     K24J00Z KC2024 05 03.32167317 42 52.207+01 48 13.75         20.36GVEJ054I52
     K24J00Z KC2024 05 03.32305117 42 52.744+01 48 02.95         20.09GVEJ054I52
     K24J00Z KC2024 05 03.32400317 42 53.118+01 47 55.46         19.95GVEJ054I52
     K24J00Z KB2024 05 03.37689 17 43 12.581+01 40 47.86         19.3 RZEJ054H36
     K24J00Z KB2024 05 03.38148 17 43 14.402+01 40 11.10         19.6 RZEJ054H36
     K24J00Z KB2024 05 03.39041 17 43 17.926+01 38 59.71         19.4 RZEJ054H36
     K24J00Z !C2024 05 03.44353 17 43 41.14 +01 31 56.0          19.8 GVEJ054673
     K24J00Z !C2024 05 03.44539 17 43 41.91 +01 31 40.7          19.9 GVEJ054673
     K24J00Z 0B2024 05 04.07431 17 48 43.824-00 01 24.02         19.7 VZEJ054M49
     K24J00Z 0B2024 05 04.08284 17 48 47.966-00 02 49.24         19.3 VZEJ054M49
     K24J00Z 0B2024 05 04.09133 17 48 52.152-00 04 14.92         19.7 VZEJ054M49
Observer details:
673 Table Mountain Observatory, Wrightwood.  Observer J. Pittichova.  1.0-m
    f/15 reflector + CCD.
F51 Pan-STARRS 1, Haleakala.  Observers J. Herman, T. Lowe, P. Minguez, A.
    Schultz, I. Smith.  Measurers K. Chambers, T. de Boer, J. Fairlamb, H.
    Gao, M. Huber, C.-C. Lin, E. Magnier, Y. Ramanjooloo, R. Wainscoat, R.
    Weryk.  1.8-m Ritchey-Chretien + CCD.
H36 Sandlot Observatory, Scranton.  Observer G. Hug.  0.56-m f/4.8 reflector +
    CMO.
I52 Steward Observatory, Mt. Lemmon Station.  Observer V. F. Carvajal.
    Measurers T. Beuden, V. F. Carvajal, D. Fay, J. B. Fazekas, D. C. Fuls, A.
    R. Gibbs, A. D. Grauer, H. Groeller, J. K. Hogan, R. A. Kowalski, S. M.
    Larson, G. J. Leonard, D. Rankin, R. L. Seaman, F. C. Shelly, K. W.
    Wierzchos.  1.0-m prime focus + CCD.
M49 IAS Remote Observatory, Hakos.  Observers D. Husar, M. Junius.  Measurer
    D. Husar.  0.25-m f/4.5 reflector + CMO.
Orbital elements:
2024 JZ                                                  Earth MOID = 0.0133 AU
Epoch 2024 Mar. 31.0 TT = JDT 2460400.5                 MPC                     
M 293.69206              (2000.0)            P               Q                  
n   0.69076767     Peri.  285.66829     +0.77020217     +0.46530157             
a   1.2674029      Node    49.00310     -0.06455479     +0.73729611             
e   0.5564932      Incl.   35.30738     -0.63452447     +0.48978455             
P   1.43           H   23.32          G   0.15           U   9                  
Residuals in seconds of arc
240502 F51  0.0   0.0     240503 I52  0.1-  0.0     240503 673  0.1+  0.2-
240502 F51  0.1-  0.1+    240503 H36  0.1+  0.3-    240504 M49  0.1+  0.1+
240502 F51  0.1+  0.1-    240503 H36  0.2+  0.3-    240504 M49  0.2-  0.2+
240503 I52  0.1+  0.0     240503 H36  0.1-  0.1-    240504 M49  0.1+  0.2-
240503 I52  0.0   0.0     240503 673  0.2-  0.0
Ephemeris:
2024 JZ                  a,e,i = 1.27, 0.56, 35                  q = 0.5621
Date    TT    R. A. (2000) Decl.     Delta      r    Elong.  Phase     V
2024 04 04    16 51 10.4 +11 43 48   0.5262  1.3325   118.3    41.4    24.2
...
2024 04 19    17 06 53.8 +10 58 31   0.3003  1.2053   125.9    42.4    22.8
...
2024 04 27    17 19 02.9 +08 39 54   0.1827  1.1322   129.8    43.1    21.6
...
2024 05 03    17 40 39.2 +02 29 14   0.09674 1.0753   132.1    44.1    20.1
2024 05 04    17 48 04.3 +00 10 15   0.08287 1.0656   132.0    44.6    19.8
2024 05 05    17 58 19.4 -03 04 21   0.06932 1.0559   131.6    45.6    19.4
...
2024 05 11    01 54 14.5 -47 53 53   0.03717 0.9967    68.0   110.0    20.3
...
2024 05 19    04 26 42.9 -24 02 35   0.1436  0.9158    45.0   128.6    24.5
...
2024 06 03    04 43 43.1 -16 19 46   0.3658  0.7635    38.6   124.0    25.7
A. U. Tomatic                (C) Copyright 2024 MPC           M.P.E.C. 2024-J54
    
    
More information about the Iaude
mailing list